This is the latest recevied weather packets stored in our database for station/object OK0EK-11. If no packets are shown the sender has not sent any weather packets the latest 10 day(s).
| Time | Temp. | Humidity | Pressure | Rain* | Wind** | Luminosity | Snow |
|---|---|---|---|---|---|---|---|
| 1787874740 | 16.67° C | 63% | 1020.2 hPa | - | - | - | - |
| 1787874141 | 17.22° C | 62% | 1020.3 hPa | - | - | - | - |
| 1787873541 | 16.67° C | 62% | 1020.5 hPa | - | - | - | - |
| 1787872941 | 17.22° C | 63% | 1020.6 hPa | - | - | - | - |
| 1787872340 | 17.22° C | 62% | 1020.4 hPa | - | - | - | - |
| 1787871741 | 17.22° C | 62% | 1020.5 hPa | - | - | - | - |
| 1787871141 | 17.22° C | 62% | 1020.7 hPa | - | - | - | - |
| 1787870541 | 17.22° C | 62% | 1020.8 hPa | - | - | - | - |
| 1787869941 | 17.22° C | 61% | 1020.9 hPa | - | - | - | - |
| 1787869341 | 17.22° C | 61% | 1020.8 hPa | - | - | - | - |
| 1787868741 | 17.78° C | 60% | 1020.9 hPa | - | - | - | - |
| 1787868141 | 17.78° C | 59% | 1021 hPa | - | - | - | - |
| 1787867541 | 18.33° C | 59% | 1020.8 hPa | - | - | - | - |
| 1787866942 | 17.22° C | 60% | 1021 hPa | - | - | - | - |
| 1787866342 | 17.78° C | 60% | 1021.1 hPa | - | - | - | - |
| 1787865742 | 17.78° C | 60% | 1021 hPa | - | - | - | - |
| 1787865142 | 17.78° C | 59% | 1021 hPa | - | - | - | - |
| 1787864543 | 17.78° C | 59% | 1021.1 hPa | - | - | - | - |
| 1787863943 | 17.78° C | 59% | 1021 hPa | - | - | - | - |
| 1787863343 | 17.22° C | 60% | 1021.1 hPa | - | - | - | - |
| 1787862743 | 17.78° C | 59% | 1021 hPa | - | - | - | - |
| 1787862144 | 17.78° C | 59% | 1021 hPa | - | - | - | - |
| 1787861543 | 17.78° C | 60% | 1020.9 hPa | - | - | - | - |
| 1787860943 | 17.78° C | 60% | 1021 hPa | - | - | - | - |
| 1787860343 | 17.78° C | 60% | 1021.1 hPa | - | - | - | - |
* Rain since midnight (hover to see other rain measurements)
** Current wind speed in m/s (hover to see current wind gust speed)